• In Hungary
  • List of Countries
  • For 7 days
  • Water Temperature
  • Satellite Maps
  • Weather Map
  • News
  • Weather Widgets
  • user-avatar
    Login

    Hourly Weather Muya

    Today, 22 February, Thursday

    Time Temperature Precipitation Wind Pressure Humidity
    00:00 -23°C° 0 mm 1 mps 714 mmHg 85%
    01:00 -23°C° 0 mm 1 mps 714 mmHg 85%
    02:00 -23°C° 0 mm 1 mps 713 mmHg 85%
    03:00 -23°C° 0 mm 1 mps 714 mmHg 85%
    04:00 -23°C° 0 mm 1 mps 714 mmHg 86%
    05:00 -24°C° 0 mm 1 mps 714 mmHg 86%
    06:00 -24°C° 0 mm 1 mps 714 mmHg 86%
    07:00 -24°C° 0 mm 1 mps 714 mmHg 86%
    08:00 -24°C° 0 mm 1 mps 714 mmHg 86%
    09:00 -22°C° 0 mm 1 mps 714 mmHg 82%
    10:00 -20°C° 0 mm 1 mps 714 mmHg 79%
    11:00 -18°C° 0 mm 1 mps 714 mmHg 76%
    12:00 -17°C° 0 mm 1 mps 714 mmHg 73%
    13:00 -18°C° 0 mm 2 mps 714 mmHg 70%
    14:00 -18°C° 0 mm 2 mps 713 mmHg 68%
    15:00 -19°C° 0 mm 2 mps 714 mmHg 72%
    16:00 -18°C° 0 mm 1 mps 714 mmHg 76%
    17:00 -19°C° 0 mm 1 mps 714 mmHg 80%
    18:00 -20°C° 0 mm 1 mps 714 mmHg 81%
    19:00 -21°C° 0 mm 1 mps 715 mmHg 81%
    20:00 -25°C° 0 mm 2 mps 715 mmHg 82%
    21:00 -26°C° 0 mm 2 mps 716 mmHg 82%
    22:00 -23°C° 0 mm 1 mps 716 mmHg 82%
    23:00 -24°C° 0 mm 1 mps 716 mmHg 82%

    Tomorrow, 23 February, Friday

    Time Temperature Precipitation Wind Pressure Humidity
    00:00 -24°C° 0 mm 1 mps 717 mmHg 82%
    01:00 -24°C° 0 mm 1 mps 717 mmHg 82%
    02:00 -25°C° 0 mm 1 mps 717 mmHg 82%
    03:00 -25°C° 0 mm 1 mps 717 mmHg 81%
    04:00 -25°C° 0 mm 1 mps 718 mmHg 81%
    05:00 -25°C° 0 mm 1 mps 718 mmHg 81%
    06:00 -25°C° 0 mm 1 mps 718 mmHg 80%
    07:00 -25°C° 0 mm 1 mps 718 mmHg 80%
    08:00 -24°C° 0 mm 1 mps 719 mmHg 80%
    09:00 -22°C° 0 mm 1 mps 719 mmHg 76%
    10:00 -20°C° 0 mm 1 mps 719 mmHg 73%
    11:00 -17°C° 0 mm 1 mps 719 mmHg 69%
    12:00 -17°C° 0 mm 1 mps 719 mmHg 69%
    13:00 -16°C° 0 mm 1 mps 719 mmHg 68%
    14:00 -15°C° 0 mm 1 mps 719 mmHg 67%
    15:00 -16°C° 0 mm 1 mps 719 mmHg 72%
    16:00 -17°C° 0 mm 1 mps 719 mmHg 78%
    17:00 -19°C° 0 mm 0 mps 719 mmHg 83%
    18:00 -20°C° 0 mm 1 mps 719 mmHg 83%
    19:00 -21°C° 0 mm 1 mps 719 mmHg 83%
    20:00 -22°C° 0 mm 1 mps 720 mmHg 84%
    21:00 -22°C° 0 mm 1 mps 720 mmHg 83%
    22:00 -22°C° 0 mm 1 mps 720 mmHg 82%
    23:00 -22°C° 0 mm 1 mps 720 mmHg 81%

    Day after tomorrow, 24 February, Saturday

    Time Temperature Precipitation Wind Pressure Humidity
    00:00 -22°C° 0 mm 1 mps 720 mmHg 81%
    01:00 -23°C° 0 mm 1 mps 720 mmHg 81%
    02:00 -23°C° 0 mm 1 mps 720 mmHg 81%
    03:00 -23°C° 0 mm 1 mps 720 mmHg 81%
    04:00 -23°C° 0 mm 1 mps 720 mmHg 81%
    05:00 -23°C° 0 mm 1 mps 720 mmHg 81%
    06:00 -23°C° 0 mm 1 mps 720 mmHg 80%
    07:00 -23°C° 0 mm 1 mps 720 mmHg 79%
    08:00 -23°C° 0 mm 1 mps 720 mmHg 79%
    09:00 -21°C° 0 mm 1 mps 719 mmHg 76%
    10:00 -19°C° 0 mm 1 mps 719 mmHg 73%
    11:00 -17°C° 0 mm 1 mps 719 mmHg 69%
    12:00 -16°C° 0 mm 1 mps 719 mmHg 69%
    13:00 -15°C° 0 mm 1 mps 718 mmHg 69%
    14:00 -14°C° 0 mm 1 mps 718 mmHg 69%
    15:00 -15°C° 0 mm 1 mps 718 mmHg 74%
    16:00 -16°C° 0 mm 1 mps 718 mmHg 79%
    17:00 -18°C° 0 mm 1 mps 718 mmHg 85%
    18:00 -19°C° 0 mm 1 mps 718 mmHg 85%
    19:00 -20°C° 0 mm 1 mps 718 mmHg 85%
    20:00 -21°C° 0 mm 1 mps 718 mmHg 85%
    21:00 -21°C° 0 mm 1 mps 718 mmHg 85%
    22:00 -21°C° 0 mm 1 mps 719 mmHg 84%
    23:00 -22°C° 0 mm 1 mps 719 mmHg 83%

    25 February, Sunday

    Time Temperature Precipitation Wind Pressure Humidity
    00:00 -22°C° 0 mm 1 mps 719 mmHg 84%
    01:00 -22°C° 0 mm 1 mps 719 mmHg 84%
    02:00 -22°C° 0 mm 1 mps 718 mmHg 84%
    03:00 -22°C° 0 mm 1 mps 718 mmHg 84%
    04:00 -22°C° 0 mm 1 mps 718 mmHg 84%
    05:00 -22°C° 0 mm 1 mps 718 mmHg 84%
    06:00 -22°C° 0 mm 1 mps 719 mmHg 84%
    07:00 -22°C° 0 mm 1 mps 719 mmHg 84%
    08:00 -22°C° 0 mm 1 mps 719 mmHg 83%
    09:00 -20°C° 0 mm 1 mps 719 mmHg 81%
    10:00 -18°C° 0 mm 1 mps 719 mmHg 78%
    11:00 -16°C° 0 mm 1 mps 719 mmHg 75%
    12:00 -15°C° 0 mm 1 mps 718 mmHg 75%
    13:00 -14°C° 0 mm 1 mps 718 mmHg 74%
    14:00 -14°C° 0 mm 1 mps 718 mmHg 74%
    15:00 -14°C° 0 mm 1 mps 718 mmHg 78%
    16:00 -15°C° 0 mm 1 mps 718 mmHg 82%
    17:00 -16°C° 0 mm 1 mps 718 mmHg 86%
    18:00 -17°C° 0 mm 1 mps 718 mmHg 87%
    19:00 -18°C° 0 mm 1 mps 719 mmHg 88%
    20:00 -20°C° 0 mm 1 mps 719 mmHg 88%
    21:00 -20°C° 0 mm 1 mps 719 mmHg 88%
    22:00 -20°C° 0 mm 1 mps 719 mmHg 88%
    23:00 -20°C° 0 mm 1 mps 720 mmHg 88%

    26 February, Monday

    Time Temperature Precipitation Wind Pressure Humidity
    00:00 -21°C° 0 mm 1 mps 720 mmHg 88%
    01:00 -21°C° 0 mm 1 mps 720 mmHg 88%
    02:00 -21°C° 0 mm 1 mps 720 mmHg 88%
    03:00 -21°C° 0 mm 1 mps 720 mmHg 88%
    04:00 -22°C° 0 mm 1 mps 720 mmHg 88%
    05:00 -22°C° 0 mm 1 mps 720 mmHg 87%
    06:00 -22°C° 0 mm 1 mps 720 mmHg 87%
    07:00 -22°C° 0 mm 1 mps 720 mmHg 86%
    08:00 -22°C° 0 mm 1 mps 721 mmHg 86%
    09:00 -20°C° 0 mm 1 mps 721 mmHg 82%
    10:00 -18°C° 0 mm 1 mps 721 mmHg 79%
    11:00 -16°C° 0 mm 1 mps 721 mmHg 76%
    12:00 -15°C° 0 mm 1 mps 720 mmHg 75%
    13:00 -14°C° 0 mm 1 mps 720 mmHg 74%
    14:00 -13°C° 0 mm 1 mps 720 mmHg 73%
    15:00 -14°C° 0 mm 1 mps 720 mmHg 77%
    16:00 -15°C° 0 mm 1 mps 720 mmHg 82%
    17:00 -16°C° 0 mm 0 mps 720 mmHg 86%
    18:00 -17°C° 0 mm 1 mps 721 mmHg 86%
    19:00 -19°C° 0 mm 1 mps 722 mmHg 87%
    20:00 -20°C° 0 mm 1 mps 722 mmHg 87%
    21:00 -20°C° 0 mm 1 mps 722 mmHg 87%
    22:00 -20°C° 0 mm 1 mps 723 mmHg 86%
    23:00 -21°C° 0 mm 1 mps 723 mmHg 85%

    27 February, Tuesday

    Time Temperature Precipitation Wind Pressure Humidity
    00:00 -21°C° 0 mm 1 mps 723 mmHg 85%
    01:00 -21°C° 0 mm 1 mps 723 mmHg 85%
    02:00 -22°C° 0 mm 1 mps 723 mmHg 85%
    03:00 -22°C° 0 mm 1 mps 724 mmHg 85%
    04:00 -22°C° 0 mm 1 mps 724 mmHg 85%
    05:00 -22°C° 0 mm 1 mps 724 mmHg 85%
    06:00 -22°C° 0 mm 1 mps 724 mmHg 85%
    07:00 -22°C° 0 mm 1 mps 725 mmHg 85%
    08:00 -22°C° 0 mm 1 mps 725 mmHg 84%
    09:00 -20°C° 0 mm 1 mps 725 mmHg 80%
    10:00 -18°C° 0 mm 0 mps 725 mmHg 76%
    11:00 -15°C° 0 mm 0 mps 725 mmHg 72%
    12:00 -15°C° 0 mm 1 mps 725 mmHg 71%
    13:00 -14°C° 0 mm 1 mps 724 mmHg 70%
    14:00 -13°C° 0 mm 1 mps 724 mmHg 70%
    15:00 -14°C° 0 mm 1 mps 724 mmHg 74%
    16:00 -15°C° 0 mm 1 mps 724 mmHg 78%
    17:00 -16°C° 0 mm 1 mps 724 mmHg 82%
    18:00 -18°C° 0 mm 1 mps 724 mmHg 84%
    19:00 -19°C° 0 mm 1 mps 724 mmHg 85%
    20:00 -21°C° 0 mm 1 mps 725 mmHg 87%
    21:00 -21°C° 0 mm 1 mps 725 mmHg 87%
    22:00 -21°C° 0 mm 1 mps 724 mmHg 87%
    23:00 -22°C° 0 mm 1 mps 724 mmHg 86%
    Show more